Burlington, WI

11:59 PM CST on January 23, 2018 (GMT -0600)
Burlington

Weather History for KBUU - December, 2012

Change the Weather History Date:

Wednesday, December 26, 2012

  Actual Average (KENW) Record (KENW)
Temperature  
Mean Temperature 26 °F -  
Max Temperature 30 °F 27 °F 51 °F (2008)
Min Temperature 23 °F 12 °F -12 °F (1951)
Degree Days  
Heating Degree Days 38    
Moisture  
Dew Point 22 °F    
Average Humidity 81    
Maximum Humidity 93    
Minimum Humidity 69    
Precipitation  
Precipitation 0.00 in - - ()
Sea Level Pressure  
Sea Level Pressure 30.11 in    
Wind  
Wind Speed 10 mph (NNE)    
Max Wind Speed 20 mph    
Max Gust Speed 29 mph    
Visibility 10 miles    
Events      
Averages and records for this station are not official NWS values.
T = Trace of Precipitation, MM = Missing Value Source: NWS Daily Summary

Daily Weather History Graph

Daily Weather History Graph

Search for Another Location

Airport or City:

Trip Planner

Search our weather history database for the weather conditions in past years. The results will help you decide how hot, cold, wet, or windy it might be!

Date:

Astronomy

Dec. 26, 2012 Rise Set
Actual Time 7:22 AM CST 4:25 PM CST
Civil Twilight 6:50 AM CST 4:58 PM CST
Nautical Twilight 6:14 AM CST 5:33 PM CST
Astronomical Twilight 5:40 AM CST 6:08 PM CST
Moon 3:19 PM CST (12/26) 5:45 AM CST (12/26)
Length of Visible Light 10h 07m
Length of Day
9h 03m
Waxing Gibbous, 97% of the Moon is Illuminated
Dec 26
Waxing Gibbous
Dec 28
Full
Jan 4
Last Quarter
Jan 11
New
Jan 18
First Quarter

Hourly Weather History & Observations

Time (CST) Temp. Windchill Dew Point Humidity Pressure Visibility Wind Dir Wind Speed Gust Speed Precip Events Conditions
12:15 AM 23.0 °F 17.0 °F 21.2 °F 93% 30.22 in 10.0 mi North 4.6 mph - N/A   Overcast
12:35 AM 23.0 °F 17.0 °F 21.2 °F 93% 30.22 in 10.0 mi North 4.6 mph - N/A   Overcast
12:55 AM 24.8 °F 19.1 °F 23.0 °F 93% 30.22 in 10.0 mi NNE 4.6 mph - N/A   Overcast
1:15 AM 24.8 °F 19.1 °F 23.0 °F 93% 30.21 in 10.0 mi North 4.6 mph - N/A   Overcast
1:35 AM 26.6 °F 20.0 °F 23.0 °F 86% 30.21 in 10.0 mi North 5.8 mph - N/A   Overcast
1:55 AM 26.6 °F 20.0 °F 23.0 °F 86% 30.21 in 10.0 mi NNE 5.8 mph - N/A   Overcast
2:15 AM 26.6 °F 19.1 °F 23.0 °F 86% 30.20 in 10.0 mi NNE 6.9 mph - N/A   Overcast
2:35 AM 26.6 °F 19.1 °F 23.0 °F 86% 30.19 in 10.0 mi NE 6.9 mph - N/A   Overcast
3:15 AM 28.4 °F 18.5 °F 23.0 °F 80% 30.17 in 10.0 mi NE 11.5 mph - N/A   Overcast
3:35 AM 28.4 °F 19.7 °F 21.2 °F 74% 30.17 in 10.0 mi NE 9.2 mph - N/A   Overcast
3:55 AM 26.6 °F 14.7 °F 21.2 °F 80% 30.17 in 10.0 mi NE 15.0 mph 21.9 mph N/A   Overcast
4:15 AM 26.6 °F 15.7 °F 21.2 °F 80% 30.16 in 10.0 mi NE 12.7 mph 21.9 mph N/A   Overcast
4:35 AM 26.6 °F 15.7 °F 21.2 °F 80% 30.16 in 10.0 mi NE 12.7 mph 19.6 mph N/A   Overcast
4:55 AM 26.6 °F 16.8 °F 21.2 °F 80% 30.15 in 10.0 mi NE 10.4 mph - N/A   Overcast
5:15 AM 26.6 °F 16.2 °F 21.2 °F 80% 30.14 in 10.0 mi NE 11.5 mph 23.0 mph N/A   Overcast
5:35 AM 26.6 °F 16.2 °F 21.2 °F 80% 30.14 in 10.0 mi NE 11.5 mph - N/A   Overcast
5:55 AM 26.6 °F 16.2 °F 21.2 °F 80% 30.14 in 10.0 mi NE 11.5 mph 19.6 mph N/A   Overcast
6:15 AM 26.6 °F 16.8 °F 21.2 °F 80% 30.14 in 10.0 mi NE 10.4 mph 17.3 mph N/A   Overcast
6:35 AM 26.6 °F 15.7 °F 21.2 °F 80% 30.13 in 10.0 mi NNE 12.7 mph - N/A   Overcast
6:55 AM 26.6 °F 17.5 °F 21.2 °F 80% 30.12 in 10.0 mi NNE 9.2 mph - N/A   Overcast
7:15 AM 26.6 °F 17.5 °F 23.0 °F 86% 30.10 in 10.0 mi North 9.2 mph - N/A   Overcast
7:35 AM 26.6 °F 17.5 °F 23.0 °F 86% 30.10 in 10.0 mi NNE 9.2 mph - N/A   Overcast
7:55 AM 28.4 °F 18.5 °F 23.0 °F 80% 30.09 in 10.0 mi NNE 11.5 mph - N/A   Overcast
8:15 AM 28.4 °F 18.0 °F 23.0 °F 80% 30.10 in 10.0 mi NE 12.7 mph 17.3 mph N/A   Overcast
8:35 AM 28.4 °F 19.1 °F 23.0 °F 80% 30.11 in 10.0 mi NE 10.4 mph 17.3 mph N/A   Overcast
8:55 AM 28.4 °F 18.5 °F 23.0 °F 80% 30.11 in 10.0 mi NE 11.5 mph - N/A   Overcast
9:15 AM 28.4 °F 18.5 °F 23.0 °F 80% 30.11 in 10.0 mi NE 11.5 mph 25.3 mph N/A   Overcast
9:35 AM 28.4 °F 17.5 °F 23.0 °F 80% 30.11 in 10.0 mi NE 13.8 mph 23.0 mph N/A   Overcast
9:55 AM 28.4 °F 18.5 °F 23.0 °F 80% 30.10 in 10.0 mi NE 11.5 mph 23.0 mph N/A   Overcast
10:15 AM 30.2 °F 18.5 °F 23.0 °F 75% 30.10 in 10.0 mi NNE 17.3 mph 23.0 mph N/A   Overcast
10:35 AM 28.4 °F 15.8 °F 23.0 °F 80% 30.10 in 10.0 mi NNE 18.4 mph 24.2 mph N/A   Overcast
10:55 AM 28.4 °F 17.0 °F 23.0 °F 80% 30.09 in 10.0 mi NNE 15.0 mph 24.2 mph N/A   Overcast
11:15 AM 28.4 °F 16.2 °F 23.0 °F 80% 30.09 in 10.0 mi NE 17.3 mph 23.0 mph N/A   Overcast
11:35 AM 28.4 °F 16.6 °F 23.0 °F 80% 30.08 in 10.0 mi NNE 16.1 mph 25.3 mph N/A   Overcast
11:55 AM 28.4 °F 15.4 °F 23.0 °F 80% 30.06 in 10.0 mi NNE 19.6 mph 26.5 mph N/A   Overcast
12:15 PM 28.4 °F 16.2 °F 23.0 °F 80% 30.06 in 10.0 mi NNE 17.3 mph 25.3 mph N/A   Overcast
12:35 PM 30.2 °F 18.9 °F 21.2 °F 69% 30.05 in 10.0 mi NNE 16.1 mph 28.8 mph N/A   Mostly Cloudy
12:55 PM 30.2 °F 20.2 °F 21.2 °F 69% 30.04 in 10.0 mi NNE 12.7 mph 20.7 mph N/A   Mostly Cloudy
1:15 PM 28.4 °F 15.4 °F 21.2 °F 74% 30.04 in 10.0 mi NNE 19.6 mph 24.2 mph N/A   Overcast
1:35 PM 30.2 °F 18.5 °F 23.0 °F 75% 30.02 in 10.0 mi NNE 17.3 mph 24.2 mph N/A   Overcast
1:55 PM 30.2 °F 18.9 °F 23.0 °F 75% 30.02 in 10.0 mi NNE 16.1 mph 21.9 mph N/A   Overcast
2:15 PM 30.2 °F 18.9 °F 23.0 °F 75% 30.03 in 10.0 mi NNE 16.1 mph 21.9 mph N/A   Overcast
2:35 PM 30.2 °F 18.9 °F 23.0 °F 75% 30.03 in 10.0 mi North 16.1 mph 23.0 mph N/A   Overcast
2:55 PM 28.4 °F 16.6 °F 23.0 °F 80% 30.04 in 10.0 mi NNE 16.1 mph 20.7 mph N/A   Overcast
3:15 PM 28.4 °F 18.5 °F 23.0 °F 80% 30.05 in 10.0 mi North 11.5 mph - N/A   Overcast
3:35 PM 28.4 °F 17.5 °F 21.2 °F 74% 30.05 in 10.0 mi North 13.8 mph 19.6 mph N/A   Overcast
3:55 PM 28.4 °F 18.5 °F 21.2 °F 74% 30.06 in 10.0 mi North 11.5 mph 16.1 mph N/A   Overcast
4:15 PM 28.4 °F 18.5 °F 21.2 °F 74% 30.07 in 10.0 mi North 11.5 mph - N/A   Overcast
4:35 PM 26.6 °F 15.2 °F 23.0 °F 86% 30.07 in 10.0 mi North 13.8 mph - N/A   Overcast
4:55 PM 26.6 °F 14.3 °F 23.0 °F 86% 30.08 in 10.0 mi North 16.1 mph - N/A   Overcast
5:15 PM 26.6 °F 13.8 °F 21.2 °F 80% 30.08 in 10.0 mi North 17.3 mph 21.9 mph N/A   Overcast
5:35 PM 26.6 °F 14.3 °F 21.2 °F 80% 30.08 in 10.0 mi North 16.1 mph 24.2 mph N/A   Overcast
5:55 PM 26.6 °F 14.7 °F 21.2 °F 80% 30.09 in 10.0 mi NNW 15.0 mph 20.7 mph N/A   Overcast
6:15 PM 26.6 °F 16.2 °F 21.2 °F 80% 30.09 in 10.0 mi NNW 11.5 mph - N/A   Overcast
6:35 PM 26.6 °F 15.2 °F 21.2 °F 80% 30.09 in 10.0 mi NNW 13.8 mph 17.3 mph N/A   Overcast
6:55 PM 26.6 °F 14.7 °F 21.2 °F 80% 30.09 in 10.0 mi NNW 15.0 mph 23.0 mph N/A   Overcast
7:15 PM 26.6 °F 14.3 °F 21.2 °F 80% 30.09 in 10.0 mi NNW 16.1 mph 25.3 mph N/A   Overcast
7:35 PM 24.8 °F 11.9 °F 21.2 °F 86% 30.08 in 10.0 mi North 16.1 mph 20.7 mph N/A   Overcast
7:55 PM 24.8 °F 12.4 °F 21.2 °F 86% 30.09 in 10.0 mi NNW 15.0 mph 21.9 mph N/A   Overcast
8:15 PM 24.8 °F 12.9 °F 21.2 °F 86% 30.09 in 10.0 mi NNW 13.8 mph - N/A   Overcast
8:35 PM 24.8 °F 12.4 °F 19.4 °F 80% 30.09 in 10.0 mi NNW 15.0 mph - N/A   Overcast
8:55 PM 24.8 °F 13.4 °F 19.4 °F 80% 30.09 in 10.0 mi North 12.7 mph - N/A   Overcast
9:15 PM 24.8 °F 12.9 °F 19.4 °F 80% 30.09 in 10.0 mi NNW 13.8 mph 19.6 mph N/A   Overcast
9:35 PM 24.8 °F 14.6 °F 19.4 °F 80% 30.09 in 10.0 mi NNW 10.4 mph 17.3 mph N/A   Overcast
9:55 PM 23.0 °F 11.7 °F 19.4 °F 86% 30.10 in 10.0 mi NNW 11.5 mph 16.1 mph N/A   Mostly Cloudy
10:15 PM 23.0 °F 12.4 °F 19.4 °F 86% 30.10 in 10.0 mi NNW 10.4 mph - N/A   Overcast
10:35 PM 23.0 °F 13.9 °F 19.4 °F 86% 30.10 in 10.0 mi NNW 8.1 mph - N/A   Mostly Cloudy
10:55 PM 23.0 °F 13.9 °F 19.4 °F 86% 30.10 in 10.0 mi NNW 8.1 mph - N/A   Mostly Cloudy
11:15 PM 23.0 °F 12.4 °F 21.2 °F 93% 30.10 in 10.0 mi NNW 10.4 mph - N/A   Overcast
11:35 PM 23.0 °F 13.1 °F 19.4 °F 86% 30.10 in 10.0 mi North 9.2 mph - N/A   Overcast
11:55 PM 24.8 °F 14.6 °F 21.2 °F 86% 30.09 in 10.0 mi NNW 10.4 mph - N/A   Overcast